Location: Byhalia Creek
(34.8270°N, 89.8040°W)
Time: 09:05:18
(UTC+00:00)

ARGOS - Pass Details

Date: 22 April 2026
Orbit: 818 x 833 km, 98.5° (Epoch: 14 May)

Event Time Altitude Azimuth Distance (km) Brightness Sun altitude
Rises 09:56:24 0° 7° (N) 3,366 6.9 -16.5°
Reaches altitude 10° 09:58:48 10° 4° (N) 2,427 6.0 -16.1°
Maximum altitude 10:04:03 57° 287° (WNW) 959 3.2 -15.1°
Enters shadow 10:08:17 16° 212° (SSW) 2,034 4.7 -14.3°
